FW7384 Weather Reports


Display with metric or nautical units.
time (UTC)temp
F
wind
direction
speed
MPH
gust
MPH
rain 1hr
in
rain 24hr
in
rain mn
in
humidity
%
barometer
mb
20260505230503 30 30 2.0 3.0 0.00 0.00 0.00 76 1012.4
20260505230003 30 31 1.0 3.0 0.00 0.00 0.00 78 1012.4
20260505225714 30 29 1.0 2.0 0.00 0.00 0.00 79 1012.4
20260505225003 29 25 1.0 2.0 0.00 0.00 0.00 82 1012.4
20260505224714 30 29 1.0 3.0 0.00 0.00 0.00 80 1012.4
20260505224003 31 38 1.0 3.0 0.00 0.00 0.00 78 1012.3
20260505223503 30 46 1.0 2.0 0.00 0.00 0.00 80 1012.4
20260505223003 31 39 1.0 2.0 0.00 0.00 0.00 80 1012.5
20260505222503 31 41 1.0 2.0 0.00 0.00 0.00 78 1012.5
20260505222003 30 52 1.0 2.0 0.00 0.00 0.00 80 1012.4
20260505221503 30 47 1.0 3.0 0.00 0.00 0.00 79 1012.4
20260505221003 30 44 2.0 3.0 0.00 0.00 0.00 77 1012.4
20260505220503 31 39 2.0 3.0 0.00 0.00 0.00 75 1012.3
20260505220004 31 32 1.0 3.0 0.00 0.00 0.00 74 1012.4
20260505215503 32 24 1.0 3.0 0.00 0.00 0.00 76 1012.3
20260505215212 32 19 1.0 3.0 0.00 0.00 0.00 75 1012.4
20260505214503 31 42 0.0 3.0 0.00 0.00 0.00 80 1012.4
20260505214003 31 43 1.0 3.0 0.00 0.00 0.00 77 1012.4
20260505213503 31 41 2.0 2.0 0.00 0.00 0.00 74 1012.2
20260505213212 32 47 1.0 2.0 0.00 0.00 0.00 73 1012.3
20260505212503 33 39 1.0 2.0 0.00 0.00 0.00 71 1012.3
20260505212003 33 32 1.0 2.0 0.00 0.00 0.00 73 1012.2
20260505211503 33 35 1.0 2.0 0.00 0.00 0.00 73 1012.2
20260505211212 33 41 1.0 2.0 0.00 0.00 0.00 72 1012.2
20260505210503 33 38 1.0 3.0 0.00 0.00 0.00 74 1012.1
20260505210003 33 34 2.0 3.0 0.00 0.00 0.00 74 1012.1
20260505205503 34 35 1.0 3.0 0.00 0.00 0.00 69 1012.1
20260505205214 34 35 1.0 3.0 0.00 0.00 0.00 67 1012.0
20260505204503 35 46 0.0 2.0 0.00 0.00 0.00 66 1012.1
20260505204003 35 29 0.0 2.0 0.00 0.00 0.00 65 1012.1
20260505203503 36 27 1.0 3.0 0.00 0.00 0.00 64 1012.1
20260505203003 36 29 0.0 3.0 0.00 0.00 0.00 64 1012.1
20260505202503 36 42 0.0 2.0 0.00 0.00 0.00 66 1011.9
20260505202003 36 60 1.0 2.0 0.00 0.00 0.00 63 1011.9
20260505201503 37 51 1.0 3.0 0.00 0.00 0.00 60 1011.9
20260505201214 37 41 1.0 3.0 0.00 0.00 0.00 60 1012.0
20260505200503 37 43 1.0 3.0 0.00 0.00 0.00 57 1011.9
20260505200003 38 40 1.0 2.0 0.00 0.00 0.00 55 1011.8
20260505195503 38 307 0.0 2.0 0.00 0.00 0.00 54 1011.8
20260505195214 39 232 0.0 2.0 0.00 0.00 0.00 52 1011.9
20260505194503 40 191 0.0 2.0 0.00 0.00 0.00 51 1011.7
20260505194003 40 208 0.0 1.0 0.00 0.00 0.00 50 1011.7
20260505193503 40 221 0.0 1.0 0.00 0.00 0.00 47 1011.8
20260505193214 41 226 0.0 1.0 0.00 0.00 0.00 49 1011.6
20260505192713 41 225 0.0 1.0 0.00 0.00 0.00 50 1011.4
20260505192003 43 197 0.0 2.0 0.00 0.00 0.00 45 1011.4
20260505191503 43 195 0.0 2.0 0.00 0.00 0.00 43 1011.2
20260505191003 44 177 0.0 1.0 0.00 0.00 0.00 39 1011.4
20260505190503 44 203 0.0 3.0 0.00 0.00 0.00 37 1011.3
20260505190214 45 221 1.0 3.0 0.00 0.00 0.00 37 1011.3
20260505185712 45 243 1.0 3.0 0.00 0.00 0.00 36 1011.2
20260505185003 45 253 1.0 3.0 0.00 0.00 0.00 34 1011.4
20260505184503 46 234 1.0 2.0 0.00 0.00 0.00 34 1011.2
20260505184003 46 235 1.0 4.0 0.00 0.00 0.00 34 1011.1
20260505183503 46 255 2.0 5.0 0.00 0.00 0.00 33 1011.0
20260505183003 47 265 3.0 6.0 0.00 0.00 0.00 32 1011.1
20260505182503 47 268 3.0 6.0 0.00 0.00 0.00 31 1011.0
20260505182213 47 259 2.0 6.0 0.00 0.00 0.00 31 1011.0
20260505181503 47 262 3.0 6.0 0.00 0.00 0.00 31 1010.9
20260505181003 48 265 3.0 6.0 0.00 0.00 0.00 31 1010.9
20260505180503 48 265 3.0 7.0 0.00 0.00 0.00 30 1010.8
20260505180003 48 266 4.0 7.0 0.00 0.00 0.00 30 1010.9
20260505175503 48 266 4.0 7.0 0.00 0.00 0.00 31 1010.8
20260505175213 49 263 4.0 7.0 0.00 0.00 0.00 30 1010.8
20260505174714 49 261 3.0 7.0 0.00 0.00 0.00 30 1010.7
20260505174003 49 268 3.0 9.0 0.00 0.00 0.00 31 1011.0
20260505173503 49 267 3.0 9.0 0.00 0.00 0.00 31 1010.8
20260505173003 49 257 3.0 7.0 0.00 0.00 0.00 30 1010.8
20260505172503 50 250 3.0 7.0 0.00 0.00 0.00 29 1010.7
20260505172003 50 262 3.0 8.0 0.00 0.00 0.00 30 1010.8
20260505171503 50 261 3.0 8.0 0.00 0.00 0.00 29 1010.6
20260505171213 50 256 3.0 8.0 0.00 0.00 0.00 28 1010.6
20260505170503 50 250 3.0 7.0 0.00 0.00 0.00 29 1010.7
20260505170003 51 223 3.0 7.0 0.00 0.00 0.00 28 1010.6
20260505165504 51 230 3.0 8.0 0.00 0.00 0.00 29 1010.6
20260505165003 51 237 3.0 8.0 0.00 0.00 0.00 28 1010.5
20260505164503 51 241 2.0 8.0 0.00 0.00 0.00 29 1010.7
20260505164003 51 222 3.0 6.0 0.00 0.00 0.00 28 1010.5
20260505163503 52 242 4.0 6.0 0.00 0.00 0.00 27 1010.5
20260505163003 51 265 4.0 9.0 0.00 0.00 0.00 28 1010.5
20260505162503 51 252 3.0 10.0 0.00 0.00 0.00 27 1010.3
20260505162003 51 268 5.0 13.0 0.00 0.00 0.00 27 1010.6
20260505161503 51 275 6.0 13.0 0.00 0.00 0.00 26 1010.5
20260505161003 52 256 4.0 12.0 0.00 0.00 0.00 26 1010.5
20260505160503 53 237 3.0 8.0 0.00 0.00 0.00 25 1010.5
20260505153003 53 247 3.0 9.0 0.00 0.00 0.00 27 1010.3
20260505152503 53 254 4.0 9.0 0.00 0.00 0.00 26 1010.3
20260505152003 53 242 4.0 11.0 0.00 0.00 0.00 27 1010.3
20260505151504 53 229 4.0 11.0 0.00 0.00 0.00 27 1010.2
20260505151003 53 238 4.0 13.0 0.00 0.00 0.00 26 1010.3
20260505150503 53 241 4.0 13.0 0.00 0.00 0.00 26 1010.3
20260505140503 54 251 5.0 11.0 0.00 0.00 0.00 24 1010.1
20260505125003 54 236 3.0 9.0 0.00 0.00 0.00 23 1009.9
20260505124503 54 227 3.0 12.0 0.00 0.00 0.00 25 1010.2
20260505124003 54 235 4.0 12.0 0.00 0.00 0.00 23 1010.1
20260505123503 54 250 4.0 11.0 0.00 0.00 0.00 23 1010.2
20260505123003 54 248 5.0 11.0 0.00 0.00 0.00 26 1010.1
20260505122503 54 229 5.0 11.0 0.00 0.00 0.00 24 1010.1
20260505122003 54 225 4.0 8.0 0.00 0.00 0.00 26 1010.0
20260505121503 54 232 3.0 15.0 0.00 0.00 0.00 25 1010.0
20260505121003 53 223 3.0 15.0 0.00 0.00 0.00 26 1010.3
20260505120503 54 211 3.0 10.0 0.00 0.00 0.00 26 1010.1
20260505120004 53 237 3.0 10.0 0.00 0.00 0.00 26 1010.2
20260505115503 53 252 4.0 8.0 0.00 0.00 0.00 25 1010.2
20260505115003 54 247 4.0 8.0 0.00 0.00 0.00 27 1010.2
20260505114503 54 253 4.0 9.0 0.00 0.00 0.00 26 1010.0
20260505114003 54 229 4.0 11.0 0.00 0.00 0.00 28 1010.0
20260505113503 54 214 4.0 11.0 0.00 0.00 0.00 26 1010.0
20260505113003 53 228 5.0 13.0 0.00 0.00 0.00 26 1010.2
20260505112503 52 233 5.0 13.0 0.00 0.00 0.00 27 1010.3
20260505112003 53 247 4.0 12.0 0.00 0.00 0.00 27 1010.3
20260505111503 52 244 3.0 12.0 0.00 0.00 0.00 28 1010.1
20260505111003 51 261 5.0 10.0 0.00 0.00 0.00 29 1010.3
20260505110503 51 281 6.0 16.0 0.00 0.00 0.00 27 1010.1
20260505102003 51 242 3.0 8.0 0.00 0.00 0.00 28 1010.1
20260505101503 51 212 3.0 10.0 0.00 0.00 0.00 25 1010.1
20260505101003 51 219 4.0 11.0 0.00 0.00 0.00 26 1010.2
20260505100503 51 229 4.0 11.0 0.00 0.00 0.00 27 1010.2
20260505100003 52 232 4.0 10.0 0.00 0.00 0.00 26 1010.3
20260505095713 52 228 4.0 10.0 0.00 0.00 0.00 25 1010.2
20260505095003 52 238 4.0 10.0 0.00 0.00 0.00 26 1010.2
20260505094503 51 260 3.0 9.0 0.00 0.00 0.00 27 1010.1
20260505094003 52 234 2.0 8.0 0.00 0.00 0.00 27 1010.5
20260505093503 51 195 2.0 12.0 0.00 0.00 0.00 33 1010.1
20260505093214 50 225 4.0 12.0 0.00 0.00 0.00 31 1010.2
20260505092503 50 246 5.0 12.0 0.00 0.00 0.00 29 1010.2
20260505092214 51 229 4.0 10.0 0.00 0.00 0.00 29 1010.2
20260505091503 50 236 3.0 10.0 0.00 0.00 0.00 31 1010.2
20260505091003 50 242 4.0 8.0 0.00 0.00 0.00 32 1010.1
20260505090503 50 269 3.0 14.0 0.00 0.00 0.00 32 1010.2
20260505090003 50 256 3.0 14.0 0.00 0.00 0.00 34 1010.1
20260505085503 49 217 3.0 9.0 0.00 0.00 0.00 33 1010.1
20260505085003 50 221 4.0 9.0 0.00 0.00 0.00 33 1010.2
20260505084713 49 220 4.0 9.0 0.00 0.00 0.00 33 1010.2
20260505084003 50 243 4.0 9.0 0.00 0.00 0.00 35 1010.0
20260505083503 48 221 3.0 8.0 0.00 0.00 0.00 37 1010.1
20260505083214 49 236 3.0 9.0 0.00 0.00 0.00 34 1010.1
20260505082503 47 255 4.0 9.0 0.00 0.00 0.00 40 1010.0
20260505082213 48 264 4.0 11.0 0.00 0.00 0.00 37 1010.2
20260505081712 47 250 4.0 11.0 0.00 0.00 0.00 39 1010.0
20260505081213 48 212 3.0 7.0 0.00 0.00 0.00 41 1009.9
20260505080712 47 224 3.0 10.0 0.00 0.00 0.00 40 1009.9
20260505080003 47 258 2.0 10.0 0.00 0.00 0.00 41 1009.9
20260505075712 46 247 2.0 9.0 0.00 0.00 0.00 41 1009.9
20260505075003 47 236 3.0 9.0 0.00 0.00 0.00 41 1009.9
20260505074503 46 270 3.0 9.0 0.00 0.00 0.00 42 1009.8
20260505074003 46 279 2.0 6.0 0.00 0.00 0.00 44 1009.9
20260505073504 46 272 3.0 8.0 0.00 0.00 0.00 47 1010.0
20260505073213 46 278 3.0 8.0 0.00 0.00 0.00 47 1009.7
20260505072714 46 268 3.0 6.0 0.00 0.00 0.00 47 1009.7
20260505072213 46 271 3.0 8.0 0.00 0.00 0.00 51 1009.9
20260505071503 45 279 4.0 9.0 0.00 0.00 0.00 54 1009.7
20260505071003 46 282 3.0 9.0 0.00 0.00 0.00 52 1009.7
20260505070714 45 274 3.0 7.0 0.00 0.00 0.00 52 1009.9
20260505070003 46 224 3.0 7.0 0.00 0.00 0.00 51 1009.7
20260505065503 46 228 3.0 10.0 0.00 0.00 0.00 49 1009.8
20260505065213 46 236 3.0 10.0 0.00 0.00 0.00 50 1009.6
20260505064503 45 257 3.0 9.0 0.00 0.00 0.00 52 1009.7
20260505064213 45 265 3.0 9.0 0.00 0.00 0.00 54 1009.6
20260505063503 45 262 4.0 9.0 0.00 0.00 0.00 56 1009.4
20260505063003 45 235 3.0 7.0 0.00 0.00 0.00 59 1009.4
20260505062714 45 222 3.0 7.0 0.00 0.00 0.00 58 1009.4
20260505062003 45 221 3.0 7.0 0.00 0.00 0.00 60 1009.5
20260505061503 45 228 3.0 8.0 0.00 0.00 0.00 57 1009.4
20260505061003 45 223 3.0 8.0 0.00 0.00 0.00 61 1009.3
20260505060503 45 253 2.0 8.0 0.00 0.00 0.00 63 1009.3
20260505060003 44 271 4.0 9.0 0.00 0.00 0.00 66 1009.3
20260505055503 44 262 4.0 9.0 0.00 0.00 0.00 65 1009.4
20260505055212 44 258 3.0 9.0 0.00 0.00 0.00 65 1009.3
20260505054713 44 265 3.0 9.0 0.00 0.00 0.00 64 1009.4
20260505054003 44 255 3.0 8.0 0.00 0.00 0.00 67 1009.1
20260505053503 44 248 3.0 10.0 0.00 0.00 0.00 68 1009.3
20260505053003 44 252 2.0 10.0 0.00 0.00 0.00 71 1009.1
20260505052503 44 246 2.0 5.0 0.00 0.00 0.00 73 1008.9
20260505052003 44 239 3.0 10.0 0.00 0.00 0.00 73 1009.1
20260505051503 43 237 3.0 10.0 0.00 0.00 0.00 74 1009.1
20260505051003 44 242 2.0 7.0 0.00 0.00 0.00 75 1008.9
20260505050503 44 240 2.0 7.0 0.00 0.00 0.00 76 1009.0
20260505050214 44 246 1.0 6.0 0.00 0.00 0.00 76 1008.9
20260505041503 43 246 2.0 5.0 0.00 0.00 0.00 85 1008.7
20260505041003 43 226 1.0 5.0 0.00 0.00 0.00 86 1008.6
20260505040503 42 223 1.0 3.0 0.00 0.00 0.00 88 1008.6
20260505040004 42 223 2.0 6.0 0.00 0.00 0.00 87 1008.6
20260505035504 42 210 2.0 6.0 0.00 0.01 0.00 87 1008.5
20260505035003 43 216 2.0 6.0 0.00 0.01 0.00 88 1008.4
20260505034503 43 216 2.0 6.0 0.00 0.01 0.00 87 1008.7
20260505034003 43 212 3.0 6.0 0.00 0.01 0.00 87 1008.5
20260505033713 43 205 3.0 5.0 0.00 0.01 0.00 88 1008.5
20260505033003 43 199 2.0 4.0 0.00 0.01 0.00 88 1008.5
20260505032503 43 195 2.0 5.0 0.00 0.01 0.00 88 1008.5
20260505032003 43 206 2.0 5.0 0.00 0.01 0.00 87 1008.5
20260505031503 43 210 2.0 5.0 0.00 0.01 0.00 87 1008.5
20260505031003 43 211 2.0 5.0 0.00 0.01 0.00 87 1008.4
20260505030503 44 211 2.0 5.0 0.00 0.02 0.00 87 1008.3
20260505030003 44 205 2.0 5.0 0.00 0.02 0.00 86 1008.4
20260505025712 44 208 2.0 5.0 0.00 0.02 0.00 86 1008.4
20260505025003 44 200 2.0 6.0 0.00 0.02 0.00 86 1008.4
20260505024503 44 198 2.0 6.0 0.00 0.02 0.00 86 1008.5
20260505024003 44 206 2.0 7.0 0.00 0.03 0.00 86 1008.4
20260505023503 44 201 2.0 7.0 0.00 0.03 0.00 86 1008.7
20260505023003 44 190 3.0 7.0 0.00 0.03 0.00 86 1008.5
20260505022503 44 188 2.0 5.0 0.00 0.03 0.00 86 1008.6
20260505022003 44 194 1.0 6.0 0.00 0.04 0.00 86 1008.5
20260505021503 44 189 2.0 6.0 0.00 0.04 0.00 86 1008.4
20260505021003 44 198 3.0 6.0 0.00 0.04 0.00 86 1008.6
20260505020503 44 210 2.0 6.0 0.00 0.04 0.00 85 1008.7
20260505020003 44 210 2.0 6.0 0.00 0.04 0.00 85 1008.5
20260505015503 44 206 3.0 10.0 0.00 0.04 0.00 85 1008.5
20260505015003 44 204 2.0 10.0 0.00 0.04 0.00 85 1008.5
20260505014503 44 209 2.0 6.0 0.00 0.04 0.00 85 1008.6
20260505014213 44 213 2.0 6.0 0.00 0.04 0.00 85 1008.6
20260505013503 44 206 2.0 9.0 0.00 0.04 0.00 85 1008.6
20260505013213 44 207 2.0 9.0 0.00 0.04 0.00 85 1008.6
20260505012503 44 212 3.0 8.0 0.00 0.04 0.00 84 1008.4
20260505012003 44 198 3.0 9.0 0.00 0.04 0.00 84 1008.6
20260505011503 44 197 3.0 9.0 0.00 0.04 0.00 84 1008.5
20260505011003 44 212 3.0 11.0 0.00 0.05 0.00 84 1008.7
20260505010503 44 209 3.0 11.0 0.00 0.06 0.00 84 1008.9
20260505010003 44 197 3.0 6.0 0.00 0.07 0.00 84 1008.6
20260505005714 44 197 2.0 6.0 0.00 0.07 0.00 84 1008.8
20260505005004 44 202 2.0 7.0 0.00 0.08 0.00 84 1008.7
20260505004503 44 208 3.0 7.0 0.00 0.08 0.00 84 1008.7
20260505004003 44 203 3.0 9.0 0.00 0.08 0.00 83 1008.9
20260505003714 44 207 3.0 9.0 0.00 0.08 0.00 83 1009.0
20260505003003 44 205 3.0 10.0 0.00 0.09 0.00 83 1008.8
20260505002503 44 201 3.0 10.0 0.00 0.09 0.00 84 1008.9
20260505002003 44 209 3.0 9.0 0.00 0.10 0.00 84 1008.8
20260505001503 44 215 3.0 9.0 0.00 0.12 0.00 84 1008.7
20260505001212 45 215 3.0 9.0 0.00 0.13 0.00 83 1008.8
20260505000503 44 197 3.0 11.0 0.00 0.13 0.00 84 1008.8
20260505000003 44 203 3.0 11.0 0.00 0.14 0.00 84 1008.7
20260504235503 44 208 3.0 11.0 0.00 0.14 0.00 84 1008.8
20260504235212 44 205 3.0 10.0 0.00 0.14 0.00 84 1008.8
20260504234503 44 207 3.0 13.0 0.00 0.15 0.00 85 1008.9
20260504234212 44 211 4.0 13.0 0.00 0.15 0.00 84 1008.8
20260504233503 44 209 3.0 7.0 0.00 0.16 0.00 85 1008.9
20260504233003 44 202 3.0 7.0 0.00 0.16 0.00 85 1008.9
20260504232503 44 188 3.0 8.0 0.00 0.17 0.00 85 1008.9
20260504232003 44 197 3.0 9.0 0.00 0.17 0.00 85 1009.0
20260504231503 44 203 3.0 9.0 0.00 0.17 0.00 84 1009.1
20260504231003 44 200 3.0 9.0 0.00 0.17 0.00 85 1009.0